Year,Month,Day,Hour,Minute,Value (Times are PST for temperature in C)
2018,06,19,00,00,20.30
2018,06,19,00,01,20.30
2018,06,19,00,02,20.30
2018,06,19,00,03,20.30
2018,06,19,00,04,20.30
2018,06,19,00,05,20.30
2018,06,19,00,06,20.30
2018,06,19,00,07,20.20
2018,06,19,00,08,20.20
2018,06,19,00,09,20.20
2018,06,19,00,10,20.30
2018,06,19,00,11,20.30
2018,06,19,00,12,20.30
2018,06,19,00,13,20.30
2018,06,19,00,14,20.30
2018,06,19,00,15,20.20
2018,06,19,00,16,20.30
2018,06,19,00,17,20.30
2018,06,19,00,18,20.30
2018,06,19,00,19,20.30
2018,06,19,00,20,20.30
2018,06,19,00,21,20.20
2018,06,19,00,22,20.20
2018,06,19,00,23,20.20
2018,06,19,00,24,20.20
2018,06,19,00,25,20.20
2018,06,19,00,26,20.20
2018,06,19,00,27,20.20
2018,06,19,00,28,20.20
2018,06,19,00,29,20.20
2018,06,19,00,30,20.20
2018,06,19,00,31,20.20
2018,06,19,00,32,20.20
2018,06,19,00,33,20.20
2018,06,19,00,34,20.20
2018,06,19,00,35,20.20
2018,06,19,00,36,20.20
2018,06,19,00,37,20.20
2018,06,19,00,38,20.20
2018,06,19,00,39,20.20
2018,06,19,00,40,20.20
2018,06,19,00,41,20.20
2018,06,19,00,42,20.20
2018,06,19,00,43,20.20
2018,06,19,00,44,20.20
2018,06,19,00,45,20.20
2018,06,19,00,46,20.20
2018,06,19,00,47,20.20
2018,06,19,00,48,20.20
2018,06,19,00,49,20.20
2018,06,19,00,50,20.20
2018,06,19,00,51,20.20
2018,06,19,00,52,20.20
2018,06,19,00,53,20.20
2018,06,19,00,54,20.20
2018,06,19,00,55,20.20
2018,06,19,00,56,20.20
2018,06,19,00,57,20.20
2018,06,19,00,58,20.20
2018,06,19,00,59,20.20
2018,06,19,01,00,20.20
2018,06,19,01,01,20.20
2018,06,19,01,02,20.20
2018,06,19,01,03,20.20
2018,06,19,01,04,20.20
2018,06,19,01,05,20.20
2018,06,19,01,06,20.20
2018,06,19,01,07,20.20
2018,06,19,01,08,20.20
2018,06,19,01,09,20.20
2018,06,19,01,10,20.20
2018,06,19,01,11,20.20
2018,06,19,01,12,20.20
2018,06,19,01,13,20.20
2018,06,19,01,14,20.20
2018,06,19,01,15,20.20
2018,06,19,01,16,20.20
2018,06,19,01,17,20.20
2018,06,19,01,18,20.20
2018,06,19,01,19,20.10
2018,06,19,01,20,20.10
2018,06,19,01,21,20.00
2018,06,19,01,22,19.90
2018,06,19,01,23,19.90
2018,06,19,01,24,19.90
2018,06,19,01,25,19.90
2018,06,19,01,26,19.90
2018,06,19,01,27,19.90
2018,06,19,01,28,19.90
2018,06,19,01,29,19.90
2018,06,19,01,30,19.80
2018,06,19,01,31,19.80
2018,06,19,01,32,19.80
2018,06,19,01,33,19.80
2018,06,19,01,34,19.80
2018,06,19,01,35,19.80
2018,06,19,01,36,19.80
2018,06,19,01,37,19.80
2018,06,19,01,38,19.70
2018,06,19,01,39,19.70
2018,06,19,01,40,19.70
2018,06,19,01,41,19.70
2018,06,19,01,42,19.70
2018,06,19,01,43,19.60
2018,06,19,01,44,19.60
2018,06,19,01,45,19.60
2018,06,19,01,46,19.60
2018,06,19,01,47,19.60
2018,06,19,01,48,19.60
2018,06,19,01,49,19.60
2018,06,19,01,50,19.60
2018,06,19,01,51,19.50
2018,06,19,01,52,19.50
2018,06,19,01,53,19.50
2018,06,19,01,54,19.50
2018,06,19,01,55,19.50
2018,06,19,01,56,19.50
2018,06,19,01,57,19.40
2018,06,19,01,58,19.40
2018,06,19,01,59,19.40
2018,06,19,02,00,19.30
2018,06,19,02,01,19.30
2018,06,19,02,02,19.30
2018,06,19,02,03,19.30
2018,06,19,02,04,19.30
2018,06,19,02,05,19.20
2018,06,19,02,06,19.20
2018,06,19,02,07,19.20
2018,06,19,02,08,19.20
2018,06,19,02,09,19.10
2018,06,19,02,10,19.10
2018,06,19,02,11,19.10
2018,06,19,02,12,19.10
2018,06,19,02,13,19.10
2018,06,19,02,14,19.10
2018,06,19,02,15,19.00
2018,06,19,02,16,18.90
2018,06,19,02,17,18.90
2018,06,19,02,18,18.90
2018,06,19,02,19,18.80
2018,06,19,02,20,18.80
2018,06,19,02,21,18.70
2018,06,19,02,22,18.50
2018,06,19,02,23,18.40
2018,06,19,02,24,18.20
2018,06,19,02,25,18.00
2018,06,19,02,26,17.80
2018,06,19,02,27,17.70
2018,06,19,02,28,17.60
2018,06,19,02,29,17.40
2018,06,19,02,30,17.30
2018,06,19,02,31,17.20
2018,06,19,02,32,17.10
2018,06,19,02,33,16.90
2018,06,19,02,34,16.90
2018,06,19,02,35,16.80
2018,06,19,02,36,16.70
2018,06,19,02,37,16.50
2018,06,19,02,38,16.40
2018,06,19,02,39,16.30
2018,06,19,02,40,16.20
2018,06,19,02,41,16.10
2018,06,19,02,42,16.10
2018,06,19,02,43,16.00
2018,06,19,02,44,15.90
2018,06,19,02,45,15.90
2018,06,19,02,46,15.80
2018,06,19,02,47,15.80
2018,06,19,02,48,15.80
2018,06,19,02,49,15.70
2018,06,19,02,50,15.60
2018,06,19,02,51,15.60
2018,06,19,02,52,15.60
2018,06,19,02,53,15.50
2018,06,19,02,54,15.50
2018,06,19,02,55,15.50
2018,06,19,02,56,15.50
2018,06,19,02,57,15.50
2018,06,19,02,58,15.40
2018,06,19,02,59,15.40
2018,06,19,03,00,15.40
2018,06,19,03,01,15.40
2018,06,19,03,02,15.30
2018,06,19,03,03,15.30
2018,06,19,03,04,15.30
2018,06,19,03,05,15.30
2018,06,19,03,06,15.30
2018,06,19,03,07,15.30
2018,06,19,03,08,15.30
2018,06,19,03,09,15.30
2018,06,19,03,10,15.30
2018,06,19,03,11,15.30
2018,06,19,03,12,15.30
2018,06,19,03,13,15.30
2018,06,19,03,14,15.20
2018,06,19,03,15,15.20
2018,06,19,03,16,15.20
2018,06,19,03,17,15.20
2018,06,19,03,18,15.20
2018,06,19,03,19,15.10
2018,06,19,03,20,15.10
2018,06,19,03,21,15.10
2018,06,19,03,22,15.10
2018,06,19,03,23,15.00
2018,06,19,03,24,15.00
2018,06,19,03,25,15.00
2018,06,19,03,26,15.00
2018,06,19,03,27,15.00
2018,06,19,03,28,15.00
2018,06,19,03,29,14.90
2018,06,19,03,30,14.90
2018,06,19,03,31,14.90
2018,06,19,03,32,14.90
2018,06,19,03,33,14.90
2018,06,19,03,34,14.90
2018,06,19,03,35,14.80
2018,06,19,03,36,14.80
2018,06,19,03,37,14.80
2018,06,19,03,38,14.80
2018,06,19,03,39,14.80
2018,06,19,03,40,14.80
2018,06,19,03,41,14.80
2018,06,19,03,42,14.80
2018,06,19,03,43,14.70
2018,06,19,03,44,14.70
2018,06,19,03,45,14.70
2018,06,19,03,46,14.60
2018,06,19,03,47,14.60
2018,06,19,03,48,14.60
2018,06,19,03,49,14.60
2018,06,19,03,50,14.60
2018,06,19,03,51,14.60
2018,06,19,03,52,14.50
2018,06,19,03,53,14.50
2018,06,19,03,54,14.50
2018,06,19,03,55,14.50
2018,06,19,03,56,14.50
2018,06,19,03,57,14.50
2018,06,19,03,58,14.40
2018,06,19,03,59,14.40
2018,06,19,04,00,14.40
2018,06,19,04,01,14.40
2018,06,19,04,02,14.30
2018,06,19,04,03,14.30
2018,06,19,04,04,14.30
2018,06,19,04,05,14.30
2018,06,19,04,06,14.20
2018,06,19,04,07,14.20
2018,06,19,04,08,14.20
2018,06,19,04,09,14.20
2018,06,19,04,10,14.20
2018,06,19,04,11,14.20
2018,06,19,04,12,14.20
2018,06,19,04,13,14.20
2018,06,19,04,14,14.20
2018,06,19,04,15,14.20
2018,06,19,04,16,14.20
2018,06,19,04,17,14.20
2018,06,19,04,18,14.10
2018,06,19,04,19,14.10
2018,06,19,04,20,14.10
2018,06,19,04,21,14.10
2018,06,19,04,22,14.10
2018,06,19,04,23,14.10
2018,06,19,04,24,14.10
2018,06,19,04,25,14.00
2018,06,19,04,26,14.00
2018,06,19,04,27,14.00
2018,06,19,04,28,14.00
2018,06,19,04,29,14.00
2018,06,19,04,30,14.00
2018,06,19,04,31,13.90
2018,06,19,04,32,13.90
2018,06,19,04,33,13.90
2018,06,19,04,34,13.90
2018,06,19,04,35,13.90
2018,06,19,04,36,13.90
2018,06,19,04,37,13.90
2018,06,19,04,38,13.90
2018,06,19,04,39,13.80
2018,06,19,04,40,13.80
2018,06,19,04,41,13.80
2018,06,19,04,42,13.80
2018,06,19,04,43,13.80
2018,06,19,04,44,13.70
2018,06,19,04,45,13.70
2018,06,19,04,46,13.70
2018,06,19,04,47,13.70
2018,06,19,04,48,13.70
2018,06,19,04,49,13.70
2018,06,19,04,50,13.60
2018,06,19,04,51,13.60
2018,06,19,04,52,13.60
2018,06,19,04,53,13.60
2018,06,19,04,54,13.50
2018,06,19,04,55,13.50
2018,06,19,04,56,13.50
2018,06,19,04,57,13.50
2018,06,19,04,58,13.50
2018,06,19,04,59,13.50
2018,06,19,05,00,13.50
2018,06,19,05,01,13.50
2018,06,19,05,02,13.50
2018,06,19,05,03,13.50
2018,06,19,05,04,13.50
2018,06,19,05,05,13.50
2018,06,19,05,06,13.50
2018,06,19,05,07,13.40
2018,06,19,05,08,13.40
2018,06,19,05,09,13.40
2018,06,19,05,10,13.40
2018,06,19,05,11,13.40
2018,06,19,05,12,13.40
2018,06,19,05,13,13.40
2018,06,19,05,14,13.30
2018,06,19,05,15,13.30
2018,06,19,05,16,13.30
2018,06,19,05,17,13.30
2018,06,19,05,18,13.30
2018,06,19,05,19,13.30
2018,06,19,05,20,13.30
2018,06,19,05,21,13.30
2018,06,19,05,22,13.30
2018,06,19,05,23,13.30
2018,06,19,05,24,13.20
2018,06,19,05,25,13.20
2018,06,19,05,26,13.20
2018,06,19,05,27,13.20
2018,06,19,05,28,13.10
2018,06,19,05,29,13.10
2018,06,19,05,30,13.10
2018,06,19,05,31,13.10
2018,06,19,05,32,13.10
2018,06,19,05,33,13.10
2018,06,19,05,34,13.10
2018,06,19,05,35,13.10
2018,06,19,05,36,13.10
2018,06,19,05,37,13.10
2018,06,19,05,38,13.10
2018,06,19,05,39,13.10
2018,06,19,05,40,13.10
2018,06,19,05,41,13.10
2018,06,19,05,42,13.10
2018,06,19,05,43,13.10
2018,06,19,05,44,13.10
2018,06,19,05,45,13.10
2018,06,19,05,46,13.10
2018,06,19,05,47,13.10
2018,06,19,05,48,13.10
2018,06,19,05,49,13.10
2018,06,19,05,50,13.10
2018,06,19,05,51,13.10
2018,06,19,05,52,13.10
2018,06,19,05,53,13.10
2018,06,19,05,54,13.20
2018,06,19,05,55,13.20
2018,06,19,05,56,13.20
2018,06,19,05,57,13.20
2018,06,19,05,58,13.30
2018,06,19,05,59,13.30
2018,06,19,06,00,13.30
2018,06,19,06,01,13.30
2018,06,19,06,02,13.40
2018,06,19,06,03,13.40
2018,06,19,06,04,13.50
2018,06,19,06,05,13.50
2018,06,19,06,06,13.50
2018,06,19,06,07,13.60
2018,06,19,06,08,13.60
2018,06,19,06,09,13.60
2018,06,19,06,10,13.60
2018,06,19,06,11,13.60
2018,06,19,06,12,13.70
2018,06,19,06,13,13.70
2018,06,19,06,14,13.70
2018,06,19,06,15,13.70
2018,06,19,06,16,13.70
2018,06,19,06,17,13.70
2018,06,19,06,18,13.70
2018,06,19,06,19,13.70
2018,06,19,06,20,13.70
2018,06,19,06,21,13.70
2018,06,19,06,22,13.70
2018,06,19,06,23,13.70
2018,06,19,06,24,13.70
2018,06,19,06,25,13.80
2018,06,19,06,26,13.80
2018,06,19,06,27,13.80
2018,06,19,06,28,13.90
2018,06,19,06,29,13.90
2018,06,19,06,30,13.90
2018,06,19,06,31,14.00
2018,06,19,06,32,14.00
2018,06,19,06,33,14.00
2018,06,19,06,34,14.10
2018,06,19,06,35,14.10
2018,06,19,06,36,14.10
2018,06,19,06,37,14.20
2018,06,19,06,38,14.20
2018,06,19,06,39,14.20
2018,06,19,06,40,14.20
2018,06,19,06,41,14.20
2018,06,19,06,42,14.20
2018,06,19,06,43,14.30
2018,06,19,06,44,14.30
2018,06,19,06,45,14.30
2018,06,19,06,46,14.40
2018,06,19,06,47,14.40
2018,06,19,06,48,14.50
2018,06,19,06,49,14.50
2018,06,19,06,50,14.50
2018,06,19,06,51,14.60
2018,06,19,06,52,14.60
2018,06,19,06,53,14.60
2018,06,19,06,54,14.60
2018,06,19,06,55,14.70
2018,06,19,06,56,14.70
2018,06,19,06,57,14.70
2018,06,19,06,58,14.70
2018,06,19,06,59,14.80
2018,06,19,07,00,14.80
2018,06,19,07,01,14.80
2018,06,19,07,02,14.80
2018,06,19,07,03,14.80
2018,06,19,07,04,14.80
2018,06,19,07,05,14.80
2018,06,19,07,06,14.80
2018,06,19,07,07,14.80
2018,06,19,07,08,14.90
2018,06,19,07,09,14.90
2018,06,19,07,10,14.90
2018,06,19,07,11,14.90
2018,06,19,07,12,14.90
2018,06,19,07,13,14.90
2018,06,19,07,14,14.90
2018,06,19,07,15,14.90
2018,06,19,07,16,14.90
2018,06,19,07,17,14.90
2018,06,19,07,18,14.90
2018,06,19,07,19,14.90
2018,06,19,07,20,14.90
2018,06,19,07,21,14.90
2018,06,19,07,22,14.90
2018,06,19,07,23,14.90
2018,06,19,07,24,15.00
2018,06,19,07,25,15.00
2018,06,19,07,26,15.00
2018,06,19,07,27,15.00
2018,06,19,07,28,15.00
2018,06,19,07,29,15.00
2018,06,19,07,30,15.00
2018,06,19,07,31,15.00
2018,06,19,07,32,15.00
2018,06,19,07,33,15.00
2018,06,19,07,34,15.00
2018,06,19,07,35,15.00
2018,06,19,07,36,15.00
2018,06,19,07,37,15.00
2018,06,19,07,38,15.00
2018,06,19,07,39,15.00
2018,06,19,07,40,15.10
2018,06,19,07,41,15.10
2018,06,19,07,42,15.10
2018,06,19,07,43,15.00
2018,06,19,07,44,15.00
2018,06,19,07,45,15.00
2018,06,19,07,46,15.00
2018,06,19,07,47,15.00
2018,06,19,07,48,15.00
2018,06,19,07,49,15.00
2018,06,19,07,50,15.00
2018,06,19,07,51,15.00
2018,06,19,07,52,14.90
2018,06,19,07,53,15.00
2018,06,19,07,54,15.00
2018,06,19,07,55,15.00
2018,06,19,07,56,15.10
2018,06,19,07,57,15.10
2018,06,19,07,58,15.10
2018,06,19,07,59,15.10
2018,06,19,08,00,15.00
2018,06,19,08,01,14.90
2018,06,19,08,02,14.80
2018,06,19,08,03,14.80
2018,06,19,08,04,14.80
2018,06,19,08,05,14.70
2018,06,19,08,06,14.70
2018,06,19,08,07,14.70
2018,06,19,08,08,14.70
2018,06,19,08,09,14.80
2018,06,19,08,10,14.80
2018,06,19,08,11,14.80
2018,06,19,08,12,14.80
2018,06,19,08,13,14.80
2018,06,19,08,14,14.80
2018,06,19,08,15,14.80
2018,06,19,08,16,14.80
2018,06,19,08,17,14.80
2018,06,19,08,18,14.80
2018,06,19,08,19,14.70
2018,06,19,08,20,14.70
2018,06,19,08,21,14.70
2018,06,19,08,22,14.70
2018,06,19,08,23,14.70
2018,06,19,08,24,14.80
2018,06,19,08,25,14.80
2018,06,19,08,26,14.80
2018,06,19,08,27,14.80
2018,06,19,08,28,14.80
2018,06,19,08,29,14.90
2018,06,19,08,30,14.90
2018,06,19,08,31,14.90
2018,06,19,08,32,15.00
2018,06,19,08,33,15.10
2018,06,19,08,34,15.10
2018,06,19,08,35,15.10
2018,06,19,08,36,15.10
2018,06,19,08,37,15.10
2018,06,19,08,38,15.00
2018,06,19,08,39,15.10
2018,06,19,08,40,15.20
2018,06,19,08,41,15.30
2018,06,19,08,42,15.30
2018,06,19,08,43,15.40
2018,06,19,08,44,15.40
2018,06,19,08,45,15.40
2018,06,19,08,46,15.40
2018,06,19,08,47,15.50
2018,06,19,08,48,15.50
2018,06,19,08,49,15.60
2018,06,19,08,50,15.70
2018,06,19,08,51,15.70
2018,06,19,08,52,15.70
2018,06,19,08,53,15.70
2018,06,19,08,54,15.80
2018,06,19,08,55,15.80
2018,06,19,08,56,15.80
2018,06,19,08,57,15.80
2018,06,19,08,58,15.80
2018,06,19,08,59,15.80
2018,06,19,09,00,15.90
2018,06,19,09,01,15.90
2018,06,19,09,02,15.80
2018,06,19,09,03,15.80
2018,06,19,09,04,15.80
2018,06,19,09,05,15.70
2018,06,19,09,06,15.80
2018,06,19,09,07,15.80
2018,06,19,09,08,15.80
2018,06,19,09,09,15.80
2018,06,19,09,10,15.70
2018,06,19,09,11,15.70
2018,06,19,09,12,15.60
2018,06,19,09,13,15.60
2018,06,19,09,14,15.60
2018,06,19,09,15,15.60
2018,06,19,09,16,15.70
2018,06,19,09,17,15.70
2018,06,19,09,18,15.60
2018,06,19,09,19,15.50
2018,06,19,09,20,15.50
2018,06,19,09,21,15.50
2018,06,19,09,22,15.50
2018,06,19,09,23,15.50
2018,06,19,09,24,15.50
2018,06,19,09,25,15.50
2018,06,19,09,26,15.60
2018,06,19,09,27,15.70
2018,06,19,09,28,15.60
2018,06,19,09,29,15.60
2018,06,19,09,30,15.60
2018,06,19,09,31,15.70
2018,06,19,09,32,15.70
2018,06,19,09,33,15.70
2018,06,19,09,34,15.60
2018,06,19,09,35,15.60
2018,06,19,09,36,15.60
2018,06,19,09,37,15.60
2018,06,19,09,38,15.60
2018,06,19,09,39,15.60
2018,06,19,09,40,15.80
2018,06,19,09,41,15.90
2018,06,19,09,42,15.90
2018,06,19,09,43,15.90
2018,06,19,09,44,16.10
2018,06,19,09,45,16.10
2018,06,19,09,46,16.10
2018,06,19,09,47,16.10
2018,06,19,09,48,16.10
2018,06,19,09,49,16.20
2018,06,19,09,50,16.30
2018,06,19,09,51,16.30
2018,06,19,09,52,16.30
2018,06,19,09,53,16.30
2018,06,19,09,54,16.30
2018,06,19,09,55,16.30
2018,06,19,09,56,16.40
2018,06,19,09,57,16.40
2018,06,19,09,58,16.40
2018,06,19,09,59,16.40
2018,06,19,10,00,16.30
2018,06,19,10,01,16.30
2018,06,19,10,02,16.30
2018,06,19,10,03,16.30
2018,06,19,10,04,16.40
2018,06,19,10,05,16.40
2018,06,19,10,06,16.40
2018,06,19,10,07,16.40
2018,06,19,10,08,16.40
2018,06,19,10,09,16.40
2018,06,19,10,10,16.50
2018,06,19,10,11,16.60
2018,06,19,10,12,16.70
2018,06,19,10,13,16.70
2018,06,19,10,14,16.80
2018,06,19,10,15,16.90
2018,06,19,10,16,17.00
2018,06,19,10,17,17.10
2018,06,19,10,18,17.10
2018,06,19,10,19,17.00
2018,06,19,10,20,16.90
2018,06,19,10,21,16.80
2018,06,19,10,22,16.80
2018,06,19,10,23,16.80
2018,06,19,10,24,16.70
2018,06,19,10,25,16.80
2018,06,19,10,26,16.80
2018,06,19,10,27,16.80
2018,06,19,10,28,16.70
2018,06,19,10,29,16.70
2018,06,19,10,30,16.90
2018,06,19,10,31,16.90
2018,06,19,10,32,17.00
2018,06,19,10,33,17.00
2018,06,19,10,34,17.00
2018,06,19,10,35,16.90
2018,06,19,10,36,16.80
2018,06,19,10,37,16.80
2018,06,19,10,38,16.80
2018,06,19,10,39,16.80
2018,06,19,10,40,16.90
2018,06,19,10,41,16.90
2018,06,19,10,42,16.90
2018,06,19,10,43,16.90
2018,06,19,10,44,16.80
2018,06,19,10,45,16.70
2018,06,19,10,46,16.70
2018,06,19,10,47,16.80
2018,06,19,10,48,16.80
2018,06,19,10,49,16.70
2018,06,19,10,50,16.60
2018,06,19,10,51,16.60
2018,06,19,10,52,16.60
2018,06,19,10,53,16.60
2018,06,19,10,54,16.60
2018,06,19,10,55,16.60
2018,06,19,10,56,16.70
2018,06,19,10,57,16.70
2018,06,19,10,58,16.70
2018,06,19,10,59,16.70
2018,06,19,11,00,16.70
2018,06,19,11,01,16.70
2018,06,19,11,02,16.70
2018,06,19,11,03,16.90
2018,06,19,11,04,17.00
2018,06,19,11,05,17.10
2018,06,19,11,06,17.10
2018,06,19,11,07,17.10
2018,06,19,11,08,17.10
2018,06,19,11,09,17.10
2018,06,19,11,10,17.20
2018,06,19,11,11,17.30
2018,06,19,11,12,17.30
2018,06,19,11,13,17.50
2018,06,19,11,14,17.50
2018,06,19,11,15,17.60
2018,06,19,11,16,17.80
2018,06,19,11,17,17.90
2018,06,19,11,18,17.90
2018,06,19,11,19,17.80
2018,06,19,11,20,17.80
2018,06,19,11,21,17.90
2018,06,19,11,22,18.00
2018,06,19,11,23,18.10
2018,06,19,11,24,18.10
2018,06,19,11,25,18.10
2018,06,19,11,26,18.10
2018,06,19,11,27,18.10
2018,06,19,11,28,18.00
2018,06,19,11,29,17.90
2018,06,19,11,30,17.90
2018,06,19,11,31,17.90
2018,06,19,11,32,17.90
2018,06,19,11,33,17.90
2018,06,19,11,34,18.10
2018,06,19,11,35,18.20
2018,06,19,11,36,18.20
2018,06,19,11,37,18.30
2018,06,19,11,38,18.40
2018,06,19,11,39,18.50
2018,06,19,11,40,18.60
2018,06,19,11,41,18.70
2018,06,19,11,42,18.80
2018,06,19,11,43,18.80
2018,06,19,11,44,18.70
2018,06,19,11,45,18.70
2018,06,19,11,46,18.80
2018,06,19,11,47,18.80
2018,06,19,11,48,18.80
2018,06,19,11,49,18.90
2018,06,19,11,50,18.80
2018,06,19,11,51,18.90
2018,06,19,11,52,18.90
2018,06,19,11,53,18.90
2018,06,19,11,54,19.00
2018,06,19,11,55,19.10
2018,06,19,11,56,19.10
2018,06,19,11,57,19.10
2018,06,19,11,58,19.10
2018,06,19,11,59,19.30
2018,06,19,12,00,19.30
2018,06,19,12,01,19.30
2018,06,19,12,02,19.10
2018,06,19,12,03,19.20
2018,06,19,12,04,19.30
2018,06,19,12,05,19.30
2018,06,19,12,06,19.10
2018,06,19,12,07,19.20
2018,06,19,12,08,19.30
2018,06,19,12,09,19.30
2018,06,19,12,10,19.20
2018,06,19,12,11,19.20
2018,06,19,12,12,19.20
2018,06,19,12,13,19.30
2018,06,19,12,14,19.30
2018,06,19,12,15,19.30
2018,06,19,12,16,19.40
2018,06,19,12,17,19.50
2018,06,19,12,18,19.60
2018,06,19,12,19,19.70
2018,06,19,12,20,19.70
2018,06,19,12,21,19.80
2018,06,19,12,22,19.70
2018,06,19,12,23,19.60
2018,06,19,12,24,19.40
2018,06,19,12,25,19.50
2018,06,19,12,26,19.60
2018,06,19,12,27,19.70
2018,06,19,12,28,19.70
2018,06,19,12,29,19.70
2018,06,19,12,30,19.80
2018,06,19,12,31,19.80
2018,06,19,12,32,19.80
2018,06,19,12,33,19.90
2018,06,19,12,34,20.00
2018,06,19,12,35,20.10
2018,06,19,12,36,20.00
2018,06,19,12,37,19.90
2018,06,19,12,38,19.80
2018,06,19,12,39,19.80
2018,06,19,12,40,19.80
2018,06,19,12,41,19.80
2018,06,19,12,42,19.90
2018,06,19,12,43,20.10
2018,06,19,12,44,20.20
2018,06,19,12,45,20.20
2018,06,19,12,46,20.20
2018,06,19,12,47,20.20
2018,06,19,12,48,20.20
2018,06,19,12,49,20.30
2018,06,19,12,50,20.20
2018,06,19,12,51,20.20
2018,06,19,12,52,20.20
2018,06,19,12,53,20.20
2018,06,19,12,54,20.20
2018,06,19,12,55,20.20
2018,06,19,12,56,20.30
2018,06,19,12,57,20.30
2018,06,19,12,58,20.30
2018,06,19,12,59,20.00
2018,06,19,13,00,19.90
2018,06,19,13,01,19.90
2018,06,19,13,02,19.70
2018,06,19,13,03,19.70
2018,06,19,13,04,19.80
2018,06,19,13,05,19.80
2018,06,19,13,06,19.80
2018,06,19,13,07,19.80
2018,06,19,13,08,19.70
2018,06,19,13,09,19.50
2018,06,19,13,10,19.40
2018,06,19,13,11,19.50
2018,06,19,13,12,19.60
2018,06,19,13,13,19.70
2018,06,19,13,14,19.80
2018,06,19,13,15,19.70
2018,06,19,13,16,19.60
2018,06,19,13,17,19.60
2018,06,19,13,18,19.70
2018,06,19,13,19,19.70
2018,06,19,13,20,19.80
2018,06,19,13,21,19.90
2018,06,19,13,22,19.90
2018,06,19,13,23,19.90
2018,06,19,13,24,19.90
2018,06,19,13,25,19.90
2018,06,19,13,26,19.90
2018,06,19,13,27,20.00
2018,06,19,13,28,20.10
2018,06,19,13,29,20.10
2018,06,19,13,30,19.90
2018,06,19,13,31,19.90
2018,06,19,13,32,20.00
2018,06,19,13,33,20.10
2018,06,19,13,34,20.20
2018,06,19,13,35,20.20
2018,06,19,13,36,20.10
2018,06,19,13,37,20.00
2018,06,19,13,38,19.90
2018,06,19,13,39,20.10
2018,06,19,13,40,20.20
2018,06,19,13,41,20.40
2018,06,19,13,42,20.60
2018,06,19,13,43,20.60
2018,06,19,13,44,20.60
2018,06,19,13,45,20.50
2018,06,19,13,46,20.50
2018,06,19,13,47,20.70
2018,06,19,13,48,20.80
2018,06,19,13,49,20.80
2018,06,19,13,50,21.00
2018,06,19,13,51,20.90
2018,06,19,13,52,20.80
2018,06,19,13,53,20.70
2018,06,19,13,54,20.60
2018,06,19,13,55,20.60
2018,06,19,13,56,20.60
2018,06,19,13,57,20.50
2018,06,19,13,58,20.50
2018,06,19,13,59,20.40
2018,06,19,14,00,20.50
2018,06,19,14,01,20.50
2018,06,19,14,02,20.60
2018,06,19,14,03,20.60
2018,06,19,14,04,20.70
2018,06,19,14,05,20.70
2018,06,19,14,06,20.80
2018,06,19,14,07,20.80
2018,06,19,14,08,20.90
2018,06,19,14,09,21.00
2018,06,19,14,10,21.10
2018,06,19,14,11,21.10
2018,06,19,14,12,21.20
2018,06,19,14,13,21.20
2018,06,19,14,14,21.30
2018,06,19,14,15,21.30
2018,06,19,14,16,21.30
2018,06,19,14,17,21.30
2018,06,19,14,18,21.30
2018,06,19,14,19,21.40
2018,06,19,14,20,21.40
2018,06,19,14,21,21.40
2018,06,19,14,22,21.30
2018,06,19,14,23,21.40
2018,06,19,14,24,21.50
2018,06,19,14,25,21.70
2018,06,19,14,26,21.80
2018,06,19,14,27,21.80
2018,06,19,14,28,21.90
2018,06,19,14,29,21.90
2018,06,19,14,30,21.90
2018,06,19,14,31,21.90
2018,06,19,14,32,22.00
2018,06,19,14,33,22.00
2018,06,19,14,34,22.00
2018,06,19,14,35,22.10
2018,06,19,14,36,22.20
2018,06,19,14,37,22.20
2018,06,19,14,38,22.20
2018,06,19,14,39,22.30
2018,06,19,14,40,22.30
2018,06,19,14,41,22.40
2018,06,19,14,42,22.30
2018,06,19,14,43,22.30
2018,06,19,14,44,22.40
2018,06,19,14,45,22.40
2018,06,19,14,46,22.40
2018,06,19,14,47,22.40
2018,06,19,14,48,22.50
2018,06,19,14,49,22.50
2018,06,19,14,50,22.60
2018,06,19,14,51,22.50
2018,06,19,14,52,22.50
2018,06,19,14,53,22.50
2018,06,19,14,54,22.40
2018,06,19,14,55,22.40
2018,06,19,14,56,22.40
2018,06,19,14,57,22.30
2018,06,19,14,58,22.30
2018,06,19,14,59,22.30
2018,06,19,15,00,22.30
2018,06,19,15,01,22.30
2018,06,19,15,02,22.20
2018,06,19,15,03,22.20
2018,06,19,15,04,22.10
2018,06,19,15,05,22.00
2018,06,19,15,06,21.90
2018,06,19,15,07,22.00
2018,06,19,15,08,22.10
2018,06,19,15,09,22.20
2018,06,19,15,10,22.10
2018,06,19,15,11,22.20
2018,06,19,15,12,22.30
2018,06,19,15,13,22.40
2018,06,19,15,14,22.50
2018,06,19,15,15,22.60
2018,06,19,15,16,22.60
2018,06,19,15,17,22.50
2018,06,19,15,18,22.60
2018,06,19,15,19,22.60
2018,06,19,15,20,22.60
2018,06,19,15,21,22.70
2018,06,19,15,22,22.70
2018,06,19,15,23,22.70
2018,06,19,15,24,22.70
2018,06,19,15,25,22.70
2018,06,19,15,26,22.60
2018,06,19,15,27,22.60
2018,06,19,15,28,22.60
2018,06,19,15,29,22.60
2018,06,19,15,30,22.60
2018,06,19,15,31,22.60
2018,06,19,15,32,22.60
2018,06,19,15,33,22.50
2018,06,19,15,34,22.50
2018,06,19,15,35,22.60
2018,06,19,15,36,22.50
2018,06,19,15,37,22.50
2018,06,19,15,38,22.50
2018,06,19,15,39,22.70
2018,06,19,15,40,22.80
2018,06,19,15,41,22.90
2018,06,19,15,42,22.90
2018,06,19,15,43,22.90
2018,06,19,15,44,22.90
2018,06,19,15,45,22.90
2018,06,19,15,46,22.90
2018,06,19,15,47,23.00
2018,06,19,15,48,23.00
2018,06,19,15,49,22.90
2018,06,19,15,50,22.90
2018,06,19,15,51,22.90
2018,06,19,15,52,22.90
2018,06,19,15,53,22.90
2018,06,19,15,54,22.90
2018,06,19,15,55,22.80
2018,06,19,15,56,22.70
2018,06,19,15,57,22.60
2018,06,19,15,58,22.60
2018,06,19,15,59,22.60
2018,06,19,16,00,22.50
2018,06,19,16,01,22.20
2018,06,19,16,02,21.90
2018,06,19,16,03,21.80
2018,06,19,16,04,21.70
2018,06,19,16,05,21.90
2018,06,19,16,06,22.00
2018,06,19,16,07,22.10
2018,06,19,16,08,22.00
2018,06,19,16,09,21.90
2018,06,19,16,10,21.90
2018,06,19,16,11,21.90
2018,06,19,16,12,22.00
2018,06,19,16,13,22.00
2018,06,19,16,14,22.00
2018,06,19,16,15,22.00
2018,06,19,16,16,22.10
2018,06,19,16,17,22.20
2018,06,19,16,18,22.30
2018,06,19,16,19,22.20
2018,06,19,16,20,22.20
2018,06,19,16,21,22.20
2018,06,19,16,22,22.40
2018,06,19,16,23,22.50
2018,06,19,16,24,22.60
2018,06,19,16,25,22.50
2018,06,19,16,26,22.40
2018,06,19,16,27,22.30
2018,06,19,16,28,22.40
2018,06,19,16,29,22.40
2018,06,19,16,30,22.50
2018,06,19,16,31,22.50
2018,06,19,16,32,22.60
2018,06,19,16,33,22.70
2018,06,19,16,34,22.90
2018,06,19,16,35,22.90
2018,06,19,16,36,23.10
2018,06,19,16,37,23.20
2018,06,19,16,38,23.30
2018,06,19,16,39,23.30
2018,06,19,16,40,23.30
2018,06,19,16,41,23.30
2018,06,19,16,42,23.20
2018,06,19,16,43,23.10
2018,06,19,16,44,23.00
2018,06,19,16,45,22.90
2018,06,19,16,46,22.80
2018,06,19,16,47,22.70
2018,06,19,16,48,22.70
2018,06,19,16,49,22.70
2018,06,19,16,50,22.60
2018,06,19,16,51,22.60
2018,06,19,16,52,22.50
2018,06,19,16,53,22.40
2018,06,19,16,54,22.30
2018,06,19,16,55,22.30
2018,06,19,16,56,22.20
2018,06,19,16,57,22.20
2018,06,19,16,58,22.30
2018,06,19,16,59,22.30
2018,06,19,17,00,22.40
2018,06,19,17,01,22.30
2018,06,19,17,02,22.30
2018,06,19,17,03,22.20
2018,06,19,17,04,22.10
2018,06,19,17,05,22.00
2018,06,19,17,06,22.00
2018,06,19,17,07,22.00
2018,06,19,17,08,21.90
2018,06,19,17,09,21.70
2018,06,19,17,10,21.60
2018,06,19,17,11,21.50
2018,06,19,17,12,21.40
2018,06,19,17,13,21.30
2018,06,19,17,14,21.30
2018,06,19,17,15,21.30
2018,06,19,17,16,21.30
2018,06,19,17,17,21.20
2018,06,19,17,18,21.00
2018,06,19,17,19,20.90